Voltar ao catálogo

OPS 4682 DEB

AtivoPO
NORAD 38376·DEBRIS·🇺🇸 United States

Lançado Apr 3, 1965 de Vandenberg Space Force Base

Loading…

Próximas Passagens (próximas 24 horas)

TLE

AtualizadoSource: Space-Track

Época: Sep 14, 2026, 07:32 UTC

1 38376U 65027CD  26257.31414083  .00000475  00000-0  16480-2 0  9990
2 38376  90.2494  12.7543 0027713 266.7386  93.0563 12.95876755673330

Acompanhe OPS 4682 DEB em tempo real com AllMySat

Download on the App Store